Weather Roundup
Issued by NWS

Home | Current Version | Previous Version | Text Only | Print | Product List | Glossary On
Versions: 1 2 3 4 5 6 7 8 9 10 11 12 13 14 15 16 17 18 19 20 21 22 23 24 25 26 27 28 29 30 31 32 33 34 35 36 37 38 39 40 41 42 43 44 45 46 47 48 49 50
000
NZUS93 KARX 280610
HRRWXR

CURRENT HOURLY OBSERVATIONS ACROSS
MUCH OF THE UPPER MISSISSIPPI VALLEY
NATIONAL WEATHER SERVICE LA CROSSE WI
100 AM CDT FRI AUG 28 2015


...SOUTHEAST MINNESOTA...


CITY           SKY/WX    TMP DP  RH WIND       PRES   REMARKS
ROCHESTER      FAIR      63  59  87 S10       30.04F
ROCHESTER/MAYO FAIR      64  60  84 SE10      30.04F
WINONA         FAIR      63  59  88 SE6       30.04F
AUSTIN         FAIR      64  61  88 CALM      30.05R
ALBERT LEA     LGT RAIN  63  63 100 S8        30.06R
DODGE CENTER   FAIR      63  59  88 S13G18    30.03F
PRESTON        FAIR      62  57  85 S9        30.06F
OWATONNA       FAIR      64  59  82 S16       30.04R
FARIBAULT      FAIR      64  61  88 S8        30.04R
$$

...ELSEWHERE IN MINNESOTA...


CITY           SKY/WX    TMP DP  RH WIND       PRES   REMARKS
MINNEAPOLIS    CLOUDY    66  59  78 S7        30.01R
INTNL FALLS    FAIR      58  58 100 SE3       29.91F
DULUTH         CLOUDY    61  54  77 S6        29.98F
RED WING       FAIR      66  59  77 SE3       30.01F
REDWOOD FALLS  FAIR      64  61  90 S7        29.98R
MANKATO        FAIR      64  59  82 S10G17    30.01S
WORTHINGTON    CLOUDY    63  59  88 SE14G21   30.00S
FAIRMONT       CLOUDY    63  57  82 S12G18    30.03S
$$

...SOUTHWEST WISCONSIN...


CITY           SKY/WX    TMP DP  RH WIND       PRES   REMARKS
LA CROSSE      FAIR      67  60  78 S8        30.05F
PRAIRIE DU CHI FAIR      65  58  77 E6        30.07F
BOSCOBEL       FAIR      61  59  93 CALM      30.09R
LONE ROCK      FAIR      59  56  89 NE3       30.11R
PLATTEVILLE    FAIR      62  59  90 SE6       30.10S
FORT MC COY    FAIR      57  55  94 CALM      30.08S
CAMP DOUGLAS   MOCLDY    59  59 100 S6        30.08R
VIROQUA        FAIR      61  59  94 S6        30.09S
WIS DELLS      FAIR      59  55  88 S6        30.10R
$$

...ELSEWHERE IN WISCONSIN...


CITY           SKY/WX    TMP DP  RH WIND       PRES   REMARKS
MILWAUKEE      FAIR      58  52  80 SW3       30.12F
MADISON        FAIR      62  56  80 S8        30.11R
GREEN BAY      FAIR      57  55  93 S6        30.10R
EAU CLAIRE     FAIR      64  59  83 S8        30.03R
BLACK RVR FLS  FAIR      58  58 100 CALM      30.06R
MEDFORD        FAIR      59  57  94 S5        30.06F
WAUSAU         FAIR      62  58  86 S6        30.06F
WIS RAPIDS     LGT RAIN  63  56  78 S6        30.08F
MARSHFIELD     FAIR      59  54  83 S5        30.07S
RICE LAKE      FAIR      58  56  92 S5        30.05R
$$

...NORTHEAST IOWA...


CITY           SKY/WX    TMP DP  RH WIND       PRES   REMARKS
DECORAH        FAIR      63  59  88 VRB5      30.05F
MASON CITY     LGT RAIN  63  61  93 S9        30.10R FOG
CHARLES CITY   MOCLDY    64  61  88 SE9       30.07R
OELWEIN          N/A     63  59  88 S8        30.07R
$$

...ELSEWHERE IN IOWA...


CITY           SKY/WX    TMP DP  RH WIND       PRES   REMARKS
DES MOINES     MOCLDY    67  59  75 SE10      30.00F
IOWA CITY      FAIR      61  58  90 CALM      30.09S
FORT DODGE     MOCLDY    63  59  88 E9        30.05F
$$

...NORTHERN ILLINOIS...


CITY           SKY/WX    TMP DP  RH WIND       PRES   REMARKS
CHICAGO-OHARE  FAIR      59  55  87 SE3       30.13S
CHICAGO-MIDWAY FAIR      65  55  70 S3        30.14R
MOLINE         FAIR      62  58  86 E6        30.08F
ROCKFORD       MOCLDY    59  55  87 SE5       30.13F
PEORIA         FAIR      64  58  80 NE5       30.11R
$$

NOTE: "FAIR" INDICATES FEW OR NO CLOUDS BELOW 12,000 FEET WITH NO
SIGNIFICANT WEATHER AND/OR OBSTRUCTIONS TO VISIBILITY. WIND
SPEEDS ARE IN MILES-PER-HOUR.



USA.gov is the U.S. government's official web portal to all federal, state and local government web resources and services.